Year,Month,Day,Hour,Minute,Value (Times are PST for temperature in C)
2021,06,28,00,00,28.90
2021,06,28,00,01,29.00
2021,06,28,00,02,29.00
2021,06,28,00,03,29.00
2021,06,28,00,04,29.00
2021,06,28,00,05,29.00
2021,06,28,00,06,29.10
2021,06,28,00,07,29.10
2021,06,28,00,08,29.10
2021,06,28,00,09,29.10
2021,06,28,00,10,29.00
2021,06,28,00,11,29.10
2021,06,28,00,12,29.00
2021,06,28,00,13,29.00
2021,06,28,00,14,29.00
2021,06,28,00,15,29.00
2021,06,28,00,16,29.00
2021,06,28,00,17,29.00
2021,06,28,00,18,28.90
2021,06,28,00,19,28.90
2021,06,28,00,20,28.80
2021,06,28,00,21,28.70
2021,06,28,00,22,28.50
2021,06,28,00,23,28.40
2021,06,28,00,24,28.20
2021,06,28,00,25,28.10
2021,06,28,00,26,28.00
2021,06,28,00,27,27.80
2021,06,28,00,28,27.70
2021,06,28,00,29,27.60
2021,06,28,00,30,27.60
2021,06,28,00,31,27.40
2021,06,28,00,32,27.30
2021,06,28,00,33,27.30
2021,06,28,00,34,27.20
2021,06,28,00,35,27.10
2021,06,28,00,36,27.00
2021,06,28,00,37,26.90
2021,06,28,00,38,26.80
2021,06,28,00,39,26.80
2021,06,28,00,40,26.70
2021,06,28,00,41,26.60
2021,06,28,00,42,26.60
2021,06,28,00,43,26.60
2021,06,28,00,44,26.50
2021,06,28,00,45,26.40
2021,06,28,00,46,26.40
2021,06,28,00,47,26.40
2021,06,28,00,48,26.40
2021,06,28,00,49,26.40
2021,06,28,00,50,26.40
2021,06,28,00,51,26.30
2021,06,28,00,52,26.30
2021,06,28,00,53,26.30
2021,06,28,00,54,26.30
2021,06,28,00,55,26.30
2021,06,28,00,56,26.30
2021,06,28,00,57,26.30
2021,06,28,00,58,26.20
2021,06,28,00,59,26.20
2021,06,28,01,00,26.20
2021,06,28,01,01,26.20
2021,06,28,01,02,26.20
2021,06,28,01,03,26.20
2021,06,28,01,04,26.20
2021,06,28,01,05,26.20
2021,06,28,01,06,26.20
2021,06,28,01,07,26.20
2021,06,28,01,08,26.20
2021,06,28,01,09,26.20
2021,06,28,01,10,26.20
2021,06,28,01,11,26.20
2021,06,28,01,12,26.20
2021,06,28,01,13,26.20
2021,06,28,01,14,26.20
2021,06,28,01,15,26.20
2021,06,28,01,16,26.20
2021,06,28,01,17,26.20
2021,06,28,01,18,26.10
2021,06,28,01,19,26.10
2021,06,28,01,20,26.10
2021,06,28,01,21,26.10
2021,06,28,01,22,26.10
2021,06,28,01,23,26.00
2021,06,28,01,24,25.90
2021,06,28,01,25,25.90
2021,06,28,01,26,25.90
2021,06,28,01,27,25.80
2021,06,28,01,28,25.70
2021,06,28,01,29,25.60
2021,06,28,01,30,25.40
2021,06,28,01,31,25.30
2021,06,28,01,32,25.20
2021,06,28,01,33,25.10
2021,06,28,01,34,25.00
2021,06,28,01,35,24.90
2021,06,28,01,36,24.90
2021,06,28,01,37,24.80
2021,06,28,01,38,24.80
2021,06,28,01,39,24.80
2021,06,28,01,40,24.70
2021,06,28,01,41,24.70
2021,06,28,01,42,24.70
2021,06,28,01,43,24.60
2021,06,28,01,44,24.60
2021,06,28,01,45,24.60
2021,06,28,01,46,24.50
2021,06,28,01,47,24.50
2021,06,28,01,48,24.40
2021,06,28,01,49,24.40
2021,06,28,01,50,24.40
2021,06,28,01,51,24.40
2021,06,28,01,52,24.40
2021,06,28,01,53,24.40
2021,06,28,01,54,24.40
2021,06,28,01,55,24.40
2021,06,28,01,56,24.40
2021,06,28,01,57,24.40
2021,06,28,01,58,24.40
2021,06,28,01,59,24.40
2021,06,28,02,00,24.40
2021,06,28,02,01,24.40
2021,06,28,02,02,24.40
2021,06,28,02,03,24.50
2021,06,28,02,04,24.50
2021,06,28,02,05,24.50
2021,06,28,02,06,24.60
2021,06,28,02,07,24.60
2021,06,28,02,08,24.60
2021,06,28,02,09,24.60
2021,06,28,02,10,24.70
2021,06,28,02,11,24.70
2021,06,28,02,12,24.70
2021,06,28,02,13,24.70
2021,06,28,02,14,24.80
2021,06,28,02,15,24.80
2021,06,28,02,16,24.80
2021,06,28,02,17,24.80
2021,06,28,02,18,24.80
2021,06,28,02,19,24.80
2021,06,28,02,20,24.80
2021,06,28,02,21,24.80
2021,06,28,02,22,24.80
2021,06,28,02,23,24.80
2021,06,28,02,24,24.80
2021,06,28,02,25,24.80
2021,06,28,02,26,24.80
2021,06,28,02,27,24.80
2021,06,28,02,28,24.70
2021,06,28,02,29,24.70
2021,06,28,02,30,24.80
2021,06,28,02,31,24.80
2021,06,28,02,32,24.80
2021,06,28,02,33,24.80
2021,06,28,02,34,24.80
2021,06,28,02,35,24.80
2021,06,28,02,36,24.90
2021,06,28,02,37,24.90
2021,06,28,02,38,24.90
2021,06,28,02,39,24.90
2021,06,28,02,40,24.80
2021,06,28,02,41,24.80
2021,06,28,02,42,24.70
2021,06,28,02,43,24.70
2021,06,28,02,44,24.60
2021,06,28,02,45,24.50
2021,06,28,02,46,24.40
2021,06,28,02,47,24.30
2021,06,28,02,48,24.20
2021,06,28,02,49,24.10
2021,06,28,02,50,24.10
2021,06,28,02,51,24.00
2021,06,28,02,52,24.00
2021,06,28,02,53,24.00
2021,06,28,02,54,23.90
2021,06,28,02,55,23.90
2021,06,28,02,56,23.90
2021,06,28,02,57,23.80
2021,06,28,02,58,23.80
2021,06,28,02,59,23.70
2021,06,28,03,00,23.70
2021,06,28,03,01,23.60
2021,06,28,03,02,23.60
2021,06,28,03,03,23.50
2021,06,28,03,04,23.50
2021,06,28,03,05,23.40
2021,06,28,03,06,23.40
2021,06,28,03,07,23.40
2021,06,28,03,08,23.40
2021,06,28,03,09,23.40
2021,06,28,03,10,23.50
2021,06,28,03,11,23.60
2021,06,28,03,12,23.60
2021,06,28,03,13,23.80
2021,06,28,03,14,23.80
2021,06,28,03,15,23.80
2021,06,28,03,16,23.80
2021,06,28,03,17,23.60
2021,06,28,03,18,23.40
2021,06,28,03,19,23.30
2021,06,28,03,20,23.10
2021,06,28,03,21,23.10
2021,06,28,03,22,23.00
2021,06,28,03,23,22.90
2021,06,28,03,24,22.90
2021,06,28,03,25,22.80
2021,06,28,03,26,22.70
2021,06,28,03,27,22.70
2021,06,28,03,28,22.60
2021,06,28,03,29,22.60
2021,06,28,03,30,22.60
2021,06,28,03,31,22.60
2021,06,28,03,32,22.60
2021,06,28,03,33,22.60
2021,06,28,03,34,22.60
2021,06,28,03,35,22.60
2021,06,28,03,36,22.60
2021,06,28,03,37,22.70
2021,06,28,03,38,22.70
2021,06,28,03,39,22.70
2021,06,28,03,40,22.80
2021,06,28,03,41,22.90
2021,06,28,03,42,23.00
2021,06,28,03,43,23.20
2021,06,28,03,44,23.40
2021,06,28,03,45,23.50
2021,06,28,03,46,23.70
2021,06,28,03,47,23.90
2021,06,28,03,48,24.10
2021,06,28,03,49,24.30
2021,06,28,03,50,24.50
2021,06,28,03,51,24.60
2021,06,28,03,52,24.40
2021,06,28,03,53,24.10
2021,06,28,03,54,24.00
2021,06,28,03,55,23.80
2021,06,28,03,56,23.70
2021,06,28,03,57,23.70
2021,06,28,03,58,23.70
2021,06,28,03,59,23.70
2021,06,28,04,00,23.70
2021,06,28,04,01,23.70
2021,06,28,04,02,23.80
2021,06,28,04,03,23.90
2021,06,28,04,04,24.00
2021,06,28,04,05,24.10
2021,06,28,04,06,24.30
2021,06,28,04,07,24.30
2021,06,28,04,08,24.40
2021,06,28,04,09,24.40
2021,06,28,04,10,24.30
2021,06,28,04,11,24.30
2021,06,28,04,12,24.20
2021,06,28,04,13,24.10
2021,06,28,04,14,24.00
2021,06,28,04,15,23.80
2021,06,28,04,16,23.60
2021,06,28,04,17,23.40
2021,06,28,04,18,23.20
2021,06,28,04,19,23.00
2021,06,28,04,20,22.90
2021,06,28,04,21,22.70
2021,06,28,04,22,22.60
2021,06,28,04,23,22.50
2021,06,28,04,24,22.40
2021,06,28,04,25,22.40
2021,06,28,04,26,22.40
2021,06,28,04,27,22.50
2021,06,28,04,28,22.60
2021,06,28,04,29,22.80
2021,06,28,04,30,22.90
2021,06,28,04,31,23.10
2021,06,28,04,32,23.30
2021,06,28,04,33,23.50
2021,06,28,04,34,23.70
2021,06,28,04,35,23.80
2021,06,28,04,36,23.90
2021,06,28,04,37,23.90
2021,06,28,04,38,23.90
2021,06,28,04,39,23.90
2021,06,28,04,40,23.80
2021,06,28,04,41,23.80
2021,06,28,04,42,23.80
2021,06,28,04,43,23.80
2021,06,28,04,44,23.80
2021,06,28,04,45,23.80
2021,06,28,04,46,23.90
2021,06,28,04,47,23.90
2021,06,28,04,48,23.90
2021,06,28,04,49,24.00
2021,06,28,04,50,24.10
2021,06,28,04,51,24.10
2021,06,28,04,52,24.20
2021,06,28,04,53,24.30
2021,06,28,04,54,24.40
2021,06,28,04,55,24.40
2021,06,28,04,56,24.50
2021,06,28,04,57,24.60
2021,06,28,04,58,24.60
2021,06,28,04,59,24.70
2021,06,28,05,00,24.80
2021,06,28,05,01,24.80
2021,06,28,05,02,24.80
2021,06,28,05,03,24.90
2021,06,28,05,04,24.90
2021,06,28,05,05,25.00
2021,06,28,05,06,25.00
2021,06,28,05,07,25.00
2021,06,28,05,08,25.10
2021,06,28,05,09,25.10
2021,06,28,05,10,25.10
2021,06,28,05,11,25.10
2021,06,28,05,12,25.00
2021,06,28,05,13,25.00
2021,06,28,05,14,24.90
2021,06,28,05,15,24.80
2021,06,28,05,16,24.80
2021,06,28,05,17,24.70
2021,06,28,05,18,24.70
2021,06,28,05,19,24.60
2021,06,28,05,20,24.60
2021,06,28,05,21,24.50
2021,06,28,05,22,24.40
2021,06,28,05,23,24.40
2021,06,28,05,24,24.30
2021,06,28,05,25,24.30
2021,06,28,05,26,24.20
2021,06,28,05,27,24.20
2021,06,28,05,28,24.20
2021,06,28,05,29,24.10
2021,06,28,05,30,24.10
2021,06,28,05,31,24.10
2021,06,28,05,32,24.00
2021,06,28,05,33,24.00
2021,06,28,05,34,23.90
2021,06,28,05,35,23.90
2021,06,28,05,36,23.90
2021,06,28,05,37,23.80
2021,06,28,05,38,23.80
2021,06,28,05,39,23.80
2021,06,28,05,40,23.70
2021,06,28,05,41,23.70
2021,06,28,05,42,23.60
2021,06,28,05,43,23.60
2021,06,28,05,44,23.50
2021,06,28,05,45,23.50
2021,06,28,05,46,23.40
2021,06,28,05,47,23.40
2021,06,28,05,48,23.30
2021,06,28,05,49,23.30
2021,06,28,05,50,23.30
2021,06,28,05,51,23.30
2021,06,28,05,52,23.30
2021,06,28,05,53,23.30
2021,06,28,05,54,23.30
2021,06,28,05,55,23.30
2021,06,28,05,56,23.40
2021,06,28,05,57,23.40
2021,06,28,05,58,23.40
2021,06,28,05,59,23.40
2021,06,28,06,00,23.50
2021,06,28,06,01,23.50
2021,06,28,06,02,23.50
2021,06,28,06,03,23.50
2021,06,28,06,04,23.50
2021,06,28,06,05,23.40
2021,06,28,06,06,23.40
2021,06,28,06,07,23.30
2021,06,28,06,08,23.30
2021,06,28,06,09,23.20
2021,06,28,06,10,23.20
2021,06,28,06,11,23.20
2021,06,28,06,12,23.20
2021,06,28,06,13,23.20
2021,06,28,06,14,23.10
2021,06,28,06,15,23.20
2021,06,28,06,16,23.20
2021,06,28,06,17,23.10
2021,06,28,06,18,23.10
2021,06,28,06,19,23.10
2021,06,28,06,20,23.10
2021,06,28,06,21,23.10
2021,06,28,06,22,23.10
2021,06,28,06,23,23.10
2021,06,28,06,24,23.10
2021,06,28,06,25,23.10
2021,06,28,06,26,23.10
2021,06,28,06,27,23.10
2021,06,28,06,28,23.10
2021,06,28,06,29,23.10
2021,06,28,06,30,23.20
2021,06,28,06,31,23.10
2021,06,28,06,32,23.10
2021,06,28,06,33,23.10
2021,06,28,06,34,23.10
2021,06,28,06,35,23.10
2021,06,28,06,36,23.10
2021,06,28,06,37,23.10
2021,06,28,06,38,23.10
2021,06,28,06,39,23.10
2021,06,28,06,40,23.10
2021,06,28,06,41,23.10
2021,06,28,06,42,23.10
2021,06,28,06,43,23.10
2021,06,28,06,44,23.10
2021,06,28,06,45,23.10
2021,06,28,06,46,23.10
2021,06,28,06,47,23.20
2021,06,28,06,48,23.20
2021,06,28,06,49,23.20
2021,06,28,06,50,23.20
2021,06,28,06,51,23.20
2021,06,28,06,52,23.20
2021,06,28,06,53,23.20
2021,06,28,06,54,23.20
2021,06,28,06,55,23.20
2021,06,28,06,56,23.20
2021,06,28,06,57,23.30
2021,06,28,06,58,23.30
2021,06,28,06,59,23.30
2021,06,28,07,00,23.30
2021,06,28,07,01,23.30
2021,06,28,07,02,23.30
2021,06,28,07,03,23.30
2021,06,28,07,04,23.30
2021,06,28,07,05,23.30
2021,06,28,07,06,23.30
2021,06,28,07,07,23.30
2021,06,28,07,08,23.30
2021,06,28,07,09,23.30
2021,06,28,07,10,23.30
2021,06,28,07,11,23.30
2021,06,28,07,12,23.30
2021,06,28,07,13,23.40
2021,06,28,07,14,23.40
2021,06,28,07,15,23.40
2021,06,28,07,16,23.40
2021,06,28,07,17,23.40
2021,06,28,07,18,23.50
2021,06,28,07,19,23.50
2021,06,28,07,20,23.50
2021,06,28,07,21,23.50
2021,06,28,07,22,23.50
2021,06,28,07,23,23.60
2021,06,28,07,24,23.60
2021,06,28,07,25,23.60
2021,06,28,07,26,23.60
2021,06,28,07,27,23.60
2021,06,28,07,28,23.70
2021,06,28,07,29,23.60
2021,06,28,07,30,23.60
2021,06,28,07,31,23.60
2021,06,28,07,32,23.60
2021,06,28,07,33,23.50
2021,06,28,07,34,23.50
2021,06,28,07,35,23.50
2021,06,28,07,36,23.50
2021,06,28,07,37,23.40
2021,06,28,07,38,23.40
2021,06,28,07,39,23.40
2021,06,28,07,40,23.40
2021,06,28,07,41,23.40
2021,06,28,07,42,23.30
2021,06,28,07,43,23.30
2021,06,28,07,44,23.30
2021,06,28,07,45,23.30
2021,06,28,07,46,23.30
2021,06,28,07,47,23.20
2021,06,28,07,48,23.20
2021,06,28,07,49,23.20
2021,06,28,07,50,23.20
2021,06,28,07,51,23.20
2021,06,28,07,52,23.30
2021,06,28,07,53,23.30
2021,06,28,07,54,23.30
2021,06,28,07,55,23.30
2021,06,28,07,56,23.30
2021,06,28,07,57,23.40
2021,06,28,07,58,23.40
2021,06,28,07,59,23.40
2021,06,28,08,00,23.40
2021,06,28,08,01,23.50
2021,06,28,08,02,23.50
2021,06,28,08,03,23.60
2021,06,28,08,04,23.60
2021,06,28,08,05,23.60
2021,06,28,08,06,23.60
2021,06,28,08,07,23.70
2021,06,28,08,08,23.70
2021,06,28,08,09,23.70
2021,06,28,08,10,23.80
2021,06,28,08,11,23.80
2021,06,28,08,12,23.80
2021,06,28,08,13,23.80
2021,06,28,08,14,23.80
2021,06,28,08,15,23.80
2021,06,28,08,16,23.80
2021,06,28,08,17,23.80
2021,06,28,08,18,23.80
2021,06,28,08,19,23.80
2021,06,28,08,20,23.80
2021,06,28,08,21,23.80
2021,06,28,08,22,23.80
2021,06,28,08,23,23.80
2021,06,28,08,24,23.90
2021,06,28,08,25,23.90
2021,06,28,08,26,23.90
2021,06,28,08,27,23.90
2021,06,28,08,28,23.90
2021,06,28,08,29,23.90
2021,06,28,08,30,24.00
2021,06,28,08,31,24.00
2021,06,28,08,32,24.00
2021,06,28,08,33,24.00
2021,06,28,08,34,24.00
2021,06,28,08,35,24.00
2021,06,28,08,36,24.10
2021,06,28,08,37,24.10
2021,06,28,08,38,24.10
2021,06,28,08,39,24.10
2021,06,28,08,40,24.20
2021,06,28,08,41,24.20
2021,06,28,08,42,24.20
2021,06,28,08,43,24.20
2021,06,28,08,44,24.20
2021,06,28,08,45,24.20
2021,06,28,08,46,24.20
2021,06,28,08,47,24.30
2021,06,28,08,48,24.30
2021,06,28,08,49,24.30
2021,06,28,08,50,24.30
2021,06,28,08,51,24.40
2021,06,28,08,52,24.40
2021,06,28,08,53,24.40
2021,06,28,08,54,24.40
2021,06,28,08,55,24.50
2021,06,28,08,56,24.60
2021,06,28,08,57,24.60
2021,06,28,08,58,24.60
2021,06,28,08,59,24.70
2021,06,28,09,00,24.70
2021,06,28,09,01,24.70
2021,06,28,09,02,24.80
2021,06,28,09,03,24.80
2021,06,28,09,04,24.80
2021,06,28,09,05,24.80
2021,06,28,09,06,24.90
2021,06,28,09,07,24.90
2021,06,28,09,08,24.90
2021,06,28,09,09,24.90
2021,06,28,09,10,24.90
2021,06,28,09,11,24.90
2021,06,28,09,12,24.90
2021,06,28,09,13,24.90
2021,06,28,09,14,25.00
2021,06,28,09,15,25.00
2021,06,28,09,16,25.00
2021,06,28,09,17,25.10
2021,06,28,09,18,25.10
2021,06,28,09,19,25.20
2021,06,28,09,20,25.20
2021,06,28,09,21,25.30
2021,06,28,09,22,25.30
2021,06,28,09,23,25.40
2021,06,28,09,24,25.50
2021,06,28,09,25,25.50
2021,06,28,09,26,25.60
2021,06,28,09,27,25.60
2021,06,28,09,28,25.60
2021,06,28,09,29,25.60
2021,06,28,09,30,25.70
2021,06,28,09,31,25.70
2021,06,28,09,32,25.70
2021,06,28,09,33,25.80
2021,06,28,09,34,25.80
2021,06,28,09,35,25.80
2021,06,28,09,36,25.80
2021,06,28,09,37,25.80
2021,06,28,09,38,25.90
2021,06,28,09,39,25.90
2021,06,28,09,40,25.90
2021,06,28,09,41,25.90
2021,06,28,09,42,25.90
2021,06,28,09,43,25.90
2021,06,28,09,44,25.90
2021,06,28,09,45,25.90
2021,06,28,09,46,25.90
2021,06,28,09,47,25.90
2021,06,28,09,48,25.90
2021,06,28,09,49,26.00
2021,06,28,09,50,26.00
2021,06,28,09,51,26.10
2021,06,28,09,52,26.10
2021,06,28,09,53,26.10
2021,06,28,09,54,26.20
2021,06,28,09,55,26.20
2021,06,28,09,56,26.20
2021,06,28,09,57,26.20
2021,06,28,09,58,26.30
2021,06,28,09,59,26.30
2021,06,28,10,00,26.30
2021,06,28,10,01,26.30
2021,06,28,10,02,26.40
2021,06,28,10,03,26.40
2021,06,28,10,04,26.40
2021,06,28,10,05,26.40
2021,06,28,10,06,26.40
2021,06,28,10,07,26.40
2021,06,28,10,08,26.40
2021,06,28,10,09,26.50
2021,06,28,10,10,26.50
2021,06,28,10,11,26.50
2021,06,28,10,12,26.50
2021,06,28,10,13,26.50
2021,06,28,10,14,26.50
2021,06,28,10,15,26.50
2021,06,28,10,16,26.50
2021,06,28,10,17,26.50
2021,06,28,10,18,26.50
2021,06,28,10,19,26.50
2021,06,28,10,20,26.50
2021,06,28,10,21,26.50
2021,06,28,10,22,26.40
2021,06,28,10,23,26.40
2021,06,28,10,24,26.40
2021,06,28,10,25,26.40
2021,06,28,10,26,26.40
2021,06,28,10,27,26.40
2021,06,28,10,28,26.40
2021,06,28,10,29,26.40
2021,06,28,10,30,26.40
2021,06,28,10,31,26.40
2021,06,28,10,32,26.40
2021,06,28,10,33,26.30
2021,06,28,10,34,26.30
2021,06,28,10,35,26.30
2021,06,28,10,36,26.20
2021,06,28,10,37,26.20
2021,06,28,10,38,26.20
2021,06,28,10,39,26.10
2021,06,28,10,40,26.00
2021,06,28,10,41,25.90
2021,06,28,10,42,25.90
2021,06,28,10,43,25.90
2021,06,28,10,44,25.80
2021,06,28,10,45,25.80
2021,06,28,10,46,25.90
2021,06,28,10,47,25.90
2021,06,28,10,48,26.00
2021,06,28,10,49,26.10
2021,06,28,10,50,26.20
2021,06,28,10,51,26.20
2021,06,28,10,52,26.30
2021,06,28,10,53,26.40
2021,06,28,10,54,26.50
2021,06,28,10,55,26.60
2021,06,28,10,56,26.70
2021,06,28,10,57,26.70
2021,06,28,10,58,26.80
2021,06,28,10,59,26.90
2021,06,28,11,00,27.00
2021,06,28,11,01,27.00
2021,06,28,11,02,27.10
2021,06,28,11,03,27.10
2021,06,28,11,04,27.20
2021,06,28,11,05,27.20
2021,06,28,11,06,27.20
2021,06,28,11,07,27.20
2021,06,28,11,08,27.20
2021,06,28,11,09,27.30
2021,06,28,11,10,27.30
2021,06,28,11,11,27.30
2021,06,28,11,12,27.30
2021,06,28,11,13,27.40
2021,06,28,11,14,27.40
2021,06,28,11,15,27.40
2021,06,28,11,16,27.40
2021,06,28,11,17,27.40
2021,06,28,11,18,27.50
2021,06,28,11,19,27.50
2021,06,28,11,20,27.60
2021,06,28,11,21,27.60
2021,06,28,11,22,27.70
2021,06,28,11,23,27.70
2021,06,28,11,24,27.80
2021,06,28,11,25,27.80
2021,06,28,11,26,27.80
2021,06,28,11,27,27.90
2021,06,28,11,28,27.90
2021,06,28,11,29,27.90
2021,06,28,11,30,28.00
2021,06,28,11,31,28.10
2021,06,28,11,32,28.10
2021,06,28,11,33,28.10
2021,06,28,11,34,28.20
2021,06,28,11,35,28.20
2021,06,28,11,36,28.30
2021,06,28,11,37,28.30
2021,06,28,11,38,28.40
2021,06,28,11,39,28.50
2021,06,28,11,40,28.50
2021,06,28,11,41,28.60
2021,06,28,11,42,28.70
2021,06,28,11,43,28.70
2021,06,28,11,44,28.80
2021,06,28,11,45,28.80
2021,06,28,11,46,28.80
2021,06,28,11,47,28.80
2021,06,28,11,48,28.90
2021,06,28,11,49,28.90
2021,06,28,11,50,28.90
2021,06,28,11,51,28.90
2021,06,28,11,52,28.90
2021,06,28,11,53,28.80
2021,06,28,11,54,28.80
2021,06,28,11,55,28.80
2021,06,28,11,56,28.70
2021,06,28,11,57,28.70
2021,06,28,11,58,28.60
2021,06,28,11,59,28.60
2021,06,28,12,00,28.60
2021,06,28,12,01,28.60
2021,06,28,12,02,28.50
2021,06,28,12,03,28.50
2021,06,28,12,04,28.40
2021,06,28,12,05,28.40
2021,06,28,12,06,28.40
2021,06,28,12,07,28.30
2021,06,28,12,08,28.30
2021,06,28,12,09,28.30
2021,06,28,12,10,28.30
2021,06,28,12,11,28.30
2021,06,28,12,12,28.30
2021,06,28,12,13,28.30
2021,06,28,12,14,28.40
2021,06,28,12,15,28.40
2021,06,28,12,16,28.50
2021,06,28,12,17,28.60
2021,06,28,12,18,28.70
2021,06,28,12,19,28.80
2021,06,28,12,20,28.80
2021,06,28,12,21,28.90
2021,06,28,12,22,28.90
2021,06,28,12,23,29.00
2021,06,28,12,24,29.00
2021,06,28,12,25,29.00
2021,06,28,12,26,29.10
2021,06,28,12,27,29.10
2021,06,28,12,28,29.10
2021,06,28,12,29,29.20
2021,06,28,12,30,29.20
2021,06,28,12,31,29.30
2021,06,28,12,32,29.30
2021,06,28,12,33,29.30
2021,06,28,12,34,29.30
2021,06,28,12,35,29.40
2021,06,28,12,36,29.40
2021,06,28,12,37,29.40
2021,06,28,12,38,29.50
2021,06,28,12,39,29.60
2021,06,28,12,40,29.60
2021,06,28,12,41,29.70
2021,06,28,12,42,29.70
2021,06,28,12,43,29.70
2021,06,28,12,44,29.70
2021,06,28,12,45,29.70
2021,06,28,12,46,29.70
2021,06,28,12,47,29.70
2021,06,28,12,48,29.70
2021,06,28,12,49,29.70
2021,06,28,12,50,29.70
2021,06,28,12,51,29.70
2021,06,28,12,52,29.70
2021,06,28,12,53,29.80
2021,06,28,12,54,29.80
2021,06,28,12,55,29.80
2021,06,28,12,56,29.90
2021,06,28,12,57,29.90
2021,06,28,12,58,29.90
2021,06,28,12,59,30.00
2021,06,28,13,00,30.10
2021,06,28,13,01,30.10
2021,06,28,13,02,30.10
2021,06,28,13,03,30.20
2021,06,28,13,04,30.30
2021,06,28,13,05,30.30
2021,06,28,13,06,30.40
2021,06,28,13,07,30.40
2021,06,28,13,08,30.40
2021,06,28,13,09,30.40
2021,06,28,13,10,30.40
2021,06,28,13,11,30.30
2021,06,28,13,12,30.30
2021,06,28,13,13,30.20
2021,06,28,13,14,30.20
2021,06,28,13,15,30.20
2021,06,28,13,16,30.20
2021,06,28,13,17,30.20
2021,06,28,13,18,30.20
2021,06,28,13,19,30.30
2021,06,28,13,20,30.30
2021,06,28,13,21,30.40
2021,06,28,13,22,30.40
2021,06,28,13,23,30.40
2021,06,28,13,24,30.40
2021,06,28,13,25,30.40
2021,06,28,13,26,30.40
2021,06,28,13,27,30.40
2021,06,28,13,28,30.40
2021,06,28,13,29,30.40
2021,06,28,13,30,30.40
2021,06,28,13,31,30.40
2021,06,28,13,32,30.30
2021,06,28,13,33,30.30
2021,06,28,13,34,30.30
2021,06,28,13,35,30.30
2021,06,28,13,36,30.30
2021,06,28,13,37,30.30
2021,06,28,13,38,30.30
2021,06,28,13,39,30.40
2021,06,28,13,40,30.40
2021,06,28,13,41,30.50
2021,06,28,13,42,30.50
2021,06,28,13,43,30.50
2021,06,28,13,44,30.60
2021,06,28,13,45,30.60
2021,06,28,13,46,30.70
2021,06,28,13,47,30.70
2021,06,28,13,48,30.80
2021,06,28,13,49,30.80
2021,06,28,13,50,30.90
2021,06,28,13,51,31.00
2021,06,28,13,52,31.10
2021,06,28,13,53,31.20
2021,06,28,13,54,31.20
2021,06,28,13,55,31.30
2021,06,28,13,56,31.40
2021,06,28,13,57,31.40
2021,06,28,13,58,31.50
2021,06,28,13,59,31.60
2021,06,28,14,00,31.60
2021,06,28,14,01,31.70
2021,06,28,14,02,31.70
2021,06,28,14,03,31.80
2021,06,28,14,04,31.80
2021,06,28,14,05,31.80
2021,06,28,14,06,31.90
2021,06,28,14,07,31.90
2021,06,28,14,08,32.00
2021,06,28,14,09,32.00
2021,06,28,14,10,32.10
2021,06,28,14,11,32.10
2021,06,28,14,12,32.20
2021,06,28,14,13,32.20
2021,06,28,14,14,32.20
2021,06,28,14,15,32.20
2021,06,28,14,16,32.30
2021,06,28,14,17,32.30
2021,06,28,14,18,32.30
2021,06,28,14,19,32.30
2021,06,28,14,20,32.40
2021,06,28,14,21,32.40
2021,06,28,14,22,32.40
2021,06,28,14,23,32.50
2021,06,28,14,24,32.60
2021,06,28,14,25,32.60
2021,06,28,14,26,32.60
2021,06,28,14,27,32.60
2021,06,28,14,28,32.70
2021,06,28,14,29,32.70
2021,06,28,14,30,32.80
2021,06,28,14,31,32.80
2021,06,28,14,32,32.80
2021,06,28,14,33,32.90
2021,06,28,14,34,32.90
2021,06,28,14,35,32.90
2021,06,28,14,36,33.00
2021,06,28,14,37,33.00
2021,06,28,14,38,33.10
2021,06,28,14,39,33.10
2021,06,28,14,40,33.20
2021,06,28,14,41,33.20
2021,06,28,14,42,33.20
2021,06,28,14,43,33.30
2021,06,28,14,44,33.40
2021,06,28,14,45,33.40
2021,06,28,14,46,33.40
2021,06,28,14,47,33.50
2021,06,28,14,48,33.60
2021,06,28,14,49,33.60
2021,06,28,14,50,33.70
2021,06,28,14,51,33.70
2021,06,28,14,52,33.70
2021,06,28,14,53,33.70
2021,06,28,14,54,33.70
2021,06,28,14,55,33.70
2021,06,28,14,56,33.60
2021,06,28,14,57,33.60
2021,06,28,14,58,33.50
2021,06,28,14,59,33.50
2021,06,28,15,00,33.40
2021,06,28,15,01,33.40
2021,06,28,15,02,33.40
2021,06,28,15,03,33.40
2021,06,28,15,04,33.50
2021,06,28,15,05,33.50
2021,06,28,15,06,33.60
2021,06,28,15,07,33.70
2021,06,28,15,08,33.70
2021,06,28,15,09,33.60
2021,06,28,15,10,33.50
2021,06,28,15,11,33.40
2021,06,28,15,12,33.40
2021,06,28,15,13,33.30
2021,06,28,15,14,33.30
2021,06,28,15,15,33.30
2021,06,28,15,16,33.30
2021,06,28,15,17,33.40
2021,06,28,15,18,33.40
2021,06,28,15,19,33.30
2021,06,28,15,20,33.30
2021,06,28,15,21,33.30
2021,06,28,15,22,33.20
2021,06,28,15,23,33.20
2021,06,28,15,24,33.20
2021,06,28,15,25,33.30
2021,06,28,15,26,33.40
2021,06,28,15,27,33.50
2021,06,28,15,28,33.60
2021,06,28,15,29,33.60
2021,06,28,15,30,33.50
2021,06,28,15,31,33.50
2021,06,28,15,32,33.40
2021,06,28,15,33,33.30
2021,06,28,15,34,33.30
2021,06,28,15,35,33.20
2021,06,28,15,36,33.20
2021,06,28,15,37,33.30
2021,06,28,15,38,33.30
2021,06,28,15,39,33.40
2021,06,28,15,40,33.50
2021,06,28,15,41,33.60
2021,06,28,15,42,33.70
2021,06,28,15,43,33.90
2021,06,28,15,44,34.10
2021,06,28,15,45,34.20
2021,06,28,15,46,34.30
2021,06,28,15,47,34.40
2021,06,28,15,48,34.50
2021,06,28,15,49,34.60
2021,06,28,15,50,34.70
2021,06,28,15,51,34.80
2021,06,28,15,52,34.90
2021,06,28,15,53,35.10
2021,06,28,15,54,35.20
2021,06,28,15,55,35.30
2021,06,28,15,56,35.40
2021,06,28,15,57,35.40
2021,06,28,15,58,35.50
2021,06,28,15,59,35.60
2021,06,28,16,00,35.60
2021,06,28,16,01,35.70
2021,06,28,16,02,35.70
2021,06,28,16,03,35.80
2021,06,28,16,04,35.80
2021,06,28,16,05,35.80
2021,06,28,16,06,35.80
2021,06,28,16,07,35.80
2021,06,28,16,08,35.80
2021,06,28,16,09,35.80
2021,06,28,16,10,35.90
2021,06,28,16,11,35.90
2021,06,28,16,12,35.90
2021,06,28,16,13,35.90
2021,06,28,16,14,36.00
2021,06,28,16,15,36.00
2021,06,28,16,16,36.00
2021,06,28,16,17,36.00
2021,06,28,16,18,36.00
2021,06,28,16,19,35.90
2021,06,28,16,20,35.70
2021,06,28,16,21,35.40
2021,06,28,16,22,35.10
2021,06,28,16,23,34.70
2021,06,28,16,24,34.40
2021,06,28,16,25,34.10
2021,06,28,16,26,33.70
2021,06,28,16,27,33.40
2021,06,28,16,28,33.10
2021,06,28,16,29,32.90
2021,06,28,16,30,32.80
2021,06,28,16,31,32.80
2021,06,28,16,32,32.80
2021,06,28,16,33,32.80
2021,06,28,16,34,32.90
2021,06,28,16,35,33.00
2021,06,28,16,36,33.20
2021,06,28,16,37,33.40
2021,06,28,16,38,33.60
2021,06,28,16,39,33.90
2021,06,28,16,40,34.20
2021,06,28,16,41,34.50
2021,06,28,16,42,34.60
2021,06,28,16,43,34.80
2021,06,28,16,44,34.80
2021,06,28,16,45,34.90
2021,06,28,16,46,34.90
2021,06,28,16,47,34.90
2021,06,28,16,48,34.80
2021,06,28,16,49,34.90
2021,06,28,16,50,34.90
2021,06,28,16,51,34.90
2021,06,28,16,52,34.80
2021,06,28,16,53,34.80
2021,06,28,16,54,34.80
2021,06,28,16,55,34.80
2021,06,28,16,56,34.80
2021,06,28,16,57,34.80
2021,06,28,16,58,34.90
2021,06,28,16,59,35.00
2021,06,28,17,00,35.00
2021,06,28,17,01,35.10
2021,06,28,17,02,35.20
2021,06,28,17,03,35.40
2021,06,28,17,04,35.60
2021,06,28,17,05,35.70
2021,06,28,17,06,36.00
2021,06,28,17,07,36.20
2021,06,28,17,08,36.50
2021,06,28,17,09,36.70
2021,06,28,17,10,36.90
2021,06,28,17,11,37.10
2021,06,28,17,12,37.30
2021,06,28,17,13,37.40
2021,06,28,17,14,37.60
2021,06,28,17,15,37.80
2021,06,28,17,16,37.90
2021,06,28,17,17,38.00
2021,06,28,17,18,38.00
2021,06,28,17,19,37.90